TimeEDT,TemperatureF,Dew PointF,Humidity,Sea Level PressureIn,VisibilityMPH,Wind Direction,Wind SpeedMPH,Gust SpeedMPH,PrecipitationIn,Events,Conditions,WindDirDegrees,DateUTC
12:54 AM,57.9,54.0,87,30.32,10.0,WSW,9.2,-,N/A,,Clear,250,2012-03-21 04:54:00
1:54 AM,57.0,54.0,89,30.32,10.0,West,11.5,-,N/A,,Clear,260,2012-03-21 05:54:00
2:54 AM,55.9,54.0,93,30.31,10.0,West,11.5,-,N/A,,Clear,260,2012-03-21 06:54:00
3:54 AM,55.9,54.0,93,30.30,10.0,West,11.5,-,N/A,,Clear,260,2012-03-21 07:54:00
4:54 AM,55.0,54.0,96,30.30,9.0,West,10.4,-,N/A,,Clear,260,2012-03-21 08:54:00
5:49 AM,55.4,53.6,94,30.31,2.0,West,12.7,-,N/A,,Scattered Clouds,260,2012-03-21 09:49:00
5:52 AM,55.4,53.6,94,30.31,1.0,West,11.5,-,N/A,,Mist,260,2012-03-21 09:52:00
5:54 AM,55.0,54.0,96,30.31,0.8,West,13.8,-,N/A,,Mist,270,2012-03-21 09:54:00
6:22 AM,55.4,55.4,100,30.31,0.2,West,13.8,-,N/A,Fog,Fog,270,2012-03-21 10:22:00
6:54 AM,55.0,55.0,100,30.32,0.2,West,12.7,-,N/A,Fog,Fog,260,2012-03-21 10:54:00
7:07 AM,55.4,55.4,100,30.32,0.2,West,11.5,-,N/A,Fog,Fog,260,2012-03-21 11:07:00
7:20 AM,55.4,55.4,100,30.33,0.2,West,11.5,-,N/A,Fog,Fog,260,2012-03-21 11:20:00
7:54 AM,55.9,55.0,97,30.34,0.2,West,12.7,-,N/A,Fog,Fog,260,2012-03-21 11:54:00
8:54 AM,55.0,55.0,100,30.35,0.2,West,11.5,-,N/A,Fog,Fog,260,2012-03-21 12:54:00
9:08 AM,55.4,55.4,100,30.35,0.5,West,9.2,-,N/A,Fog,Fog,260,2012-03-21 13:08:00
9:35 AM,55.4,55.4,100,30.36,1.0,West,8.1,-,N/A,,Overcast,260,2012-03-21 13:35:00
9:43 AM,55.4,55.4,100,30.36,3.0,West,11.5,-,N/A,,Overcast,270,2012-03-21 13:43:00
9:54 AM,55.9,55.9,100,30.37,6.0,West,9.2,-,N/A,,Overcast,260,2012-03-21 13:54:00
10:54 AM,59.0,55.0,87,30.37,10.0,WSW,9.2,-,N/A,,Overcast,250,2012-03-21 14:54:00
11:08 AM,60.8,55.4,82,30.36,10.0,WSW,12.7,-,N/A,,Mostly Cloudy,250,2012-03-21 15:08:00
11:32 AM,62.6,55.4,77,30.36,10.0,WSW,10.4,-,N/A,,Scattered Clouds,250,2012-03-21 15:32:00
11:54 AM,64.9,55.0,70,30.35,10.0,WSW,12.7,-,N/A,,Clear,240,2012-03-21 15:54:00
12:54 PM,68.0,55.0,63,30.34,10.0,SW,9.2,-,N/A,,Clear,230,2012-03-21 16:54:00
1:54 PM,71.1,54.0,55,30.31,10.0,SW,12.7,-,N/A,,Clear,220,2012-03-21 17:54:00
2:54 PM,72.0,54.0,53,30.29,10.0,SW,12.7,-,N/A,,Clear,230,2012-03-21 18:54:00
3:54 PM,72.0,53.1,51,30.27,10.0,West,12.7,-,N/A,,Clear,260,2012-03-21 19:54:00
4:54 PM,73.0,53.1,49,30.26,10.0,SW,15.0,20.7,N/A,,Clear,220,2012-03-21 20:54:00
5:54 PM,71.1,52.0,51,30.26,10.0,SW,12.7,-,N/A,,Clear,230,2012-03-21 21:54:00
6:54 PM,68.0,52.0,56,30.26,10.0,SW,9.2,-,N/A,,Clear,230,2012-03-21 22:54:00
7:54 PM,64.9,53.1,65,30.27,10.0,WSW,8.1,-,N/A,,Clear,240,2012-03-21 23:54:00
8:54 PM,64.0,54.0,70,30.28,10.0,WSW,12.7,-,N/A,,Clear,240,2012-03-22 00:54:00
9:54 PM,62.1,55.0,78,30.28,10.0,WSW,10.4,-,N/A,,Clear,240,2012-03-22 01:54:00
10:54 PM,60.1,55.0,83,30.27,10.0,WSW,12.7,-,N/A,,Clear,250,2012-03-22 02:54:00
11:54 PM,59.0,55.0,87,30.26,10.0,WSW,11.5,-,N/A,,Clear,250,2012-03-22 03:54:00